Weather History for KTAD - October, 2011

Change the Weather History Date:

Saturday, October 22, 2011

  Actual Average Record
Temperature  
Mean Temperature 57 °F 50 °F  
Max Temperature 72 °F 66 °F 84 °F (2003)
Min Temperature 41 °F 35 °F 14 °F (1996)
Degree Days  
Heating Degree Days 8 15  
Month to date heating degree days 203 246  
Since 1 July heating degree days 263 356  
Cooling Degree Days 0 0  
Month to date cooling degree days 8 0  
Year to date cooling degree days 1118 716  
Growing Degree Days 6 (Base 50)    
Moisture  
Dew Point 20 °F    
Average Humidity 28    
Maximum Humidity 40    
Minimum Humidity 16    
Precipitation  
Precipitation 0.00 in 0.04 in 0.50 in (2000)
Month to date precipitation 0.25 0.62  
Year to date precipitation 7.76 12.32  
Snow  
Snow 0.00 in - - ()
Month to date snowfall 0.0  
Snow Depth 0.00 in    
Sea Level Pressure  
Sea Level Pressure 30.04 in    
Wind  
Wind Speed 11 mph (WNW)    
Max Wind Speed 20 mph    
Max Gust Speed 29 mph    
Visibility 10 miles    
Events      
T = Trace of Precipitation, MM = Missing Value Source: NWS Daily Summary

Daily Weather History Graph

Daily Weather History Graph

Search for Another Location

Airport or City:

Trip Planner

Search our weather history database for the weather conditions in past years. The results will help you decide how hot, cold, wet, or windy it might be!

Date:

Astronomy

Oct. 22, 2011 Rise Set
Actual Time 7:11 AM MDT 6:11 PM MDT
Civil Twilight 6:45 AM MDT 6:37 PM MDT
Nautical Twilight 6:14 AM MDT 7:08 PM MDT
Astronomical Twilight 5:44 AM MDT 7:38 PM MDT
Moon 2:18 AM MDT (10/22) 3:25 PM MDT (10/22)
Length of Visible Light 11h 52m
Length of Day
10h 59m
Waning Crescent, 23% of the Moon is Illuminated
Oct 22
Waning Crescent
Oct 26
New
Nov 2
First Quarter
Nov 10
Full
Nov 18
Last Quarter

Hourly Weather History & Observations

Time (MDT) Temp. Windchill Dew Point Humidity Pressure Visibility Wind Dir Wind Speed Gust Speed Precip Events Conditions
1:54 AM 46.9 °F - 17.1 °F 30% 29.99 in 10.0 mi West 13.8 mph - N/A   Clear
2:54 AM 46.0 °F 39.3 °F 18.0 °F 33% 29.99 in 10.0 mi WSW 16.1 mph - N/A   Clear
3:54 AM 46.0 °F 39.0 °F 18.0 °F 33% 29.99 in 10.0 mi WSW 17.3 mph - N/A   Clear
4:54 AM 45.0 °F 37.9 °F 18.0 °F 34% 30.00 in 10.0 mi WSW 16.1 mph - N/A   Clear
5:54 AM 44.1 °F 38.6 °F 18.0 °F 35% 30.02 in 10.0 mi West 10.4 mph - N/A   Clear
6:54 AM 43.0 °F 36.4 °F 18.0 °F 37% 30.04 in 10.0 mi WSW 12.7 mph - N/A   Clear
7:54 AM 45.0 °F 38.9 °F 19.0 °F 36% 30.08 in 10.0 mi West 12.7 mph - N/A   Clear
8:54 AM 55.0 °F - 19.9 °F 25% 30.08 in 10.0 mi West 10.4 mph - N/A   Clear
9:54 AM 63.0 °F - 21.9 °F 21% 30.05 in 10.0 mi North 5.8 mph - N/A   Clear
10:54 AM 66.9 °F - 21.0 °F 17% 30.05 in 10.0 mi North 15.0 mph - N/A   Clear
12:54 PM 70.0 °F - 21.9 °F 16% 30.01 in 10.0 mi NE 10.4 mph 19.6 mph N/A   Clear
1:54 PM 70.0 °F - 21.9 °F 16% 30.00 in 10.0 mi NE 11.5 mph - N/A   Clear
2:54 PM 70.0 °F - 21.0 °F 16% 29.99 in 10.0 mi ENE 13.8 mph - N/A   Clear
3:54 PM 68.0 °F - 21.0 °F 17% 29.99 in 10.0 mi East 6.9 mph - N/A   Clear
4:54 PM 68.0 °F - 21.9 °F 17% 29.99 in 10.0 mi East 10.4 mph - N/A   Clear
5:54 PM 63.0 °F - 23.0 °F 22% 30.03 in 10.0 mi ENE 9.2 mph - N/A   Clear
6:54 PM 57.0 °F - 21.9 °F 26% 30.08 in 10.0 mi ESE 5.8 mph - N/A   Clear
7:54 PM 51.1 °F - 19.9 °F 29% 30.10 in 10.0 mi South 6.9 mph - N/A   Clear
8:54 PM 48.0 °F - 21.0 °F 34% 30.09 in 10.0 mi NW 4.6 mph - N/A   Clear
9:54 PM 45.0 °F 40.6 °F 21.9 °F 40% 30.09 in 10.0 mi WNW 8.1 mph - N/A   Clear
10:54 PM 44.1 °F 38.6 °F 21.9 °F 42% 30.08 in 10.0 mi West 10.4 mph - N/A   Clear
11:54 PM 44.1 °F 38.6 °F 21.0 °F 40% 30.07 in 10.0 mi West 10.4 mph - N/A   Clear